User: anonymous   Login
Location: Unspecified
(0.0000°N, 0.0000°E)
Time: 20:55:57
(UTC+00:00)
Language:

FLTSATCOM F8 - Orbit

View from above orbital plane
View from above orbital plane
View from above satellite
View from above satellite

Ground track
Ground track

The orbit data is extracted from the following two-line orbital elements,

1 20253U 89077A   18108.50306341 0.00000000  00000-0  00000-0 0    06
2 20253  13.0194  12.1776 0009618 209.9370 150.0184  1.00270000    09
Epoch (UTC): 18 April 2018 12:04:24
Eccentricity: 0.0009618
inclination: 13.0194°
perigee height: 35746 km
apogee height: 35827 km
right ascension of ascending node: 12.1776°
argument of perigee: 209.9370°
revolutions per day: 1.00270000
mean anomaly at epoch: 150.0184°
orbit number at epoch: 0

The dashed part of the orbit path shows where the satellite is in the earth's shadow,  

DLR